Home   Weather   Ontario   Past weeks

Flag for USA Past Weather in Ontario, Oregon, USA — Yesterday and Last 2 Weeks

Now
69 °F

Passing clouds.


Feels Like: 69 °F
Forecast: 48 / 70 °F
Wind: 9 mph from South

Location: Ontario Municipal Airport

Current Time: Oct 1, 2016 at 2:48:03 AM

Latest Report: Oct 1, 2016 at 1:53 AM


Visibility: 10 mi

Pressure: 29.80 "Hg (27.61 "Hg at 656m altitude)

Humidity: 31%

Dew Point: 37 °F

Location of OntarioLocation

Past Weather in Ontario — Graph

°F

Ontario Temperature Yesterday

Maximum temperature yesterday: 88 °F (at 3:53 PM)
Minimum temperature yesterday: 55 °F (at 6:53 AM)
Average temperature yesterday: 72 °F

High & Low Weather Summary for the Past Weeks

 TemperatureHumidityPressure
High88 °F (Sep 30, 3:53 PM)87% (Sep 21, 9:53 PM)30.50 "Hg (Sep 21, 9:53 PM)
Low38 °F (Sep 16, 6:53 AM)13% (Sep 25, 5:53 PM)29.75 "Hg (Sep 30, 10:53 PM)
Average64 °F47%30.03 "Hg
* Reported Sep 16 1:53 AM — Oct 1 1:53 AM, Ontario, Weather by CustomWeather, © 2016

Note: Actual official high and low records may vary slightly from our data, if they occured in-between our weather recording intervals... More about our weather records

Advertising

Ontario Weather History for the Previous 24 Hours

Scroll right to see more
 ConditionsComfort  
Time TempWeatherWind HumidityBarometerVisibility
1:53 AM
Sat, Oct 1
69 °FPassing clouds.9 mph31%29.80 "Hg10 mi
12:53 AM66 °FPassing clouds.7 mph40%29.79 "Hg10 mi
11:53 PM
Fri, Sep 30
68 °FClear.3 mph36%29.78 "Hg10 mi
10:53 PM71 °FClear.5 mph32%29.75 "Hg10 mi
9:53 PM73 °FClear.No wind25%29.76 "Hg10 mi
8:53 PM79 °FClear.8 mph20%29.77 "Hg10 mi
7:53 PM79 °FSunny.9 mph22%29.78 "Hg10 mi
6:53 PM81 °FSunny.No wind24%29.78 "Hg10 mi
5:53 PM85 °FSunny.6 mph18%29.79 "Hg10 mi
4:53 PM87 °FSunny.7 mph15%29.82 "Hg10 mi
3:53 PM88 °FSunny.10 mph15%29.84 "Hg10 mi
2:53 PM87 °FSunny.10 mph16%29.87 "Hg10 mi
1:53 PM86 °FSunny.10 mph17%29.90 "Hg10 mi
12:53 PM82 °FSunny.10 mph27%29.95 "Hg10 mi
11:53 AM77 °FSunny.6 mph33%29.98 "Hg10 mi
10:53 AM71 °FSunny.No wind45%30.01 "Hg10 mi
9:53 AM66 °FSunny.3 mph52%30.01 "Hg10 mi
8:53 AM60 °FSunny.3 mph58%30.01 "Hg10 mi
7:53 AM57 °FClear.No wind62%30.01 "Hg10 mi
6:53 AM55 °FClear.No wind64%29.98 "Hg10 mi
5:53 AM58 °FClear.No wind60%29.97 "Hg10 mi
4:53 AM59 °FClear.No wind60%29.96 "Hg10 mi
3:53 AM59 °FClear.No wind60%29.93 "Hg10 mi
2:53 AM65 °FClear.6 mph49%29.91 "Hg10 mi
Weather by CustomWeather, © 2016

See weather overviewHow to use our weather pages